Weather History for Chennai, India

Change the Weather History Date:

Tuesday, August 20, 2013

  Actual Average Record
Temperature  
Mean Temperature 86 °F -  
Max Temperature 94 °F 90 °F 98 °F (2001)
Min Temperature 78 °F 77 °F 73 °F (2008)
Cooling Degree Days 21    
Growing Degree Days 36 (Base 50)    
Moisture  
Dew Point 73 °F    
Average Humidity 67    
Maximum Humidity 89    
Minimum Humidity 40    
Precipitation  
Precipitation 0.20 in 0.20 in - ()
Sea Level Pressure  
Sea Level Pressure 29.68 in    
Wind  
Wind Speed 7 mph ()    
Max Wind Speed 17 mph    
Max Gust Speed 25 mph    
Visibility 3.8 miles    
Events Rain , Thunderstorm    
Averages and records for this station are not official NWS values.
T = Trace of Precipitation, MM = Missing Value Source: Averaged Metar Reports

Daily Weather History Graph

Daily Weather History Graph

Search for Another Location

Airport:

Trip Planner

Search our weather history database for the weather conditions in past years. The results will help you decide how hot, cold, wet, or windy it might be!

Date:

Astronomy

Aug. 20, 2013 Rise Set
Actual Time 5:57 AM IST 6:27 PM IST
Civil Twilight 5:35 AM IST 6:49 PM IST
Nautical Twilight 5:10 AM IST 7:14 PM IST
Astronomical Twilight 4:44 AM IST 7:40 PM IST
Moon 5:45 PM IST (8/20) 4:54 AM IST (8/20)
Length of Visible Light 13h 13m
Length of Day
12h 30m
Waxing Gibbous, 99% of the Moon is Illuminated
Aug 20
Waxing Gibbous
Aug 21
Full
Aug 28
Last Quarter
Sep 5
New
Sep 12
First Quarter

Hourly Weather History & Observations

Time (IST) Temp. Heat Index Dew Point Humidity Pressure Visibility Wind Dir Wind Speed Gust Speed Precip Events Conditions
12:10 AM 82.4 °F 90.9 °F 77.0 °F 84% 29.71 in 3.7 mi WSW 5.8 mph - N/A   Mostly Cloudy
12:40 AM 82.4 °F 90.9 °F 77.0 °F 84% 29.71 in 3.7 mi WSW 4.6 mph - N/A   Mostly Cloudy
1:10 AM 82.4 °F 90.9 °F 77.0 °F 84% 29.68 in 3.7 mi SW 6.9 mph - N/A   Mostly Cloudy
1:40 AM 82.4 °F 90.9 °F 77.0 °F 84% 29.68 in 3.7 mi SW 6.9 mph - N/A   Scattered Clouds
2:10 AM 82.4 °F 90.9 °F 77.0 °F 84% 29.68 in 3.7 mi SW 6.9 mph - N/A   Scattered Clouds
2:30 AM 82 °F - 77 °F 80% 29.70 in 2 mi SW 2.3 mph - -   Scattered Clouds
2:40 AM 82.4 °F 90.9 °F 77.0 °F 84% 29.68 in 3.7 mi WSW 8.1 mph - N/A   Mostly Cloudy
3:10 AM 82.4 °F 89.5 °F 75.2 °F 79% 29.68 in 3.7 mi SW 6.9 mph - N/A   Mostly Cloudy
3:40 AM 82.4 °F 89.5 °F 75.2 °F 79% 29.68 in 3.7 mi SSW 6.9 mph - N/A   Mostly Cloudy
4:10 AM 80.6 °F 85.4 °F 73.4 °F 79% 29.68 in 3.7 mi SW 6.9 mph - N/A   Mostly Cloudy
4:40 AM 80.6 °F 85.4 °F 73.4 °F 79% 29.68 in 3.7 mi SW 8.1 mph - N/A   Mostly Cloudy
5:10 AM 80.6 °F 85.4 °F 73.4 °F 79% 29.68 in 3.7 mi SW 9.2 mph - N/A   Mostly Cloudy
5:30 AM 81 °F - 75 °F 77% 29.72 in 2 mi West 2.3 mph - -   Partly Cloudy
5:40 AM 80.6 °F 85.4 °F 73.4 °F 79% 29.71 in 3.7 mi SW 8.1 mph - N/A   Mostly Cloudy
6:40 AM 80.6 °F 85.4 °F 73.4 °F 79% 29.71 in 3.1 mi SW 6.9 mph - N/A   Haze
7:10 AM 80.6 °F 85.4 °F 73.4 °F 79% 29.71 in 3.1 mi SW 5.8 mph - N/A   Haze
7:40 AM 82.4 °F 88.2 °F 73.4 °F 74% 29.74 in 3.1 mi SW 8.1 mph - N/A   Haze
8:10 AM 84.2 °F 89.6 °F 71.6 °F 66% 29.74 in 3.1 mi WSW 12.7 mph - N/A   Haze
8:30 AM 86 °F - 70 °F 49% 29.76 in 6 mi NW 3.5 mph - -   Scattered Clouds
8:40 AM 86.0 °F 90.4 °F 69.8 °F 58% 29.74 in 3.7 mi West 12.7 mph - N/A   Mostly Cloudy
9:10 AM 86.0 °F 90.4 °F 69.8 °F 58% 29.74 in 3.7 mi WSW 16.1 mph - N/A   Mostly Cloudy
9:40 AM 87.8 °F 93.8 °F 71.6 °F 58% 29.74 in 3.7 mi WSW 13.8 mph - N/A   Mostly Cloudy
10:10 AM 87.8 °F 93.8 °F 71.6 °F 58% 29.71 in 4.3 mi WSW 12.7 mph - N/A   Scattered Clouds
10:40 AM 89.6 °F 96.2 °F 71.6 °F 55% 29.71 in 4.3 mi West 12.7 mph - N/A   Scattered Clouds
11:10 AM 89.6 °F 94.7 °F 69.8 °F 52% 29.71 in 4.3 mi West 12.7 mph - N/A   Scattered Clouds
11:30 AM 91 °F - 70 °F 41% 29.74 in 6 mi West 6.9 mph - -   Scattered Clouds
11:40 AM 89.6 °F 96.2 °F 71.6 °F 55% 29.71 in 4.3 mi WSW 13.8 mph - N/A   Scattered Clouds
12:10 PM 89.6 °F 94.7 °F 69.8 °F 52% 29.68 in 4.3 mi WSW 17.3 mph - N/A   Scattered Clouds
12:40 PM 89.6 °F 96.2 °F 71.6 °F 55% 29.68 in 4.3 mi West 13.8 mph 25.3 mph N/A   Scattered Clouds
1:10 PM 91.4 °F 98.4 °F 71.6 °F 52% 29.65 in 4.3 mi West 13.8 mph - N/A   Scattered Clouds
1:40 PM 91.4 °F 98.4 °F 71.6 °F 52% 29.65 in 4.3 mi West 15.0 mph - N/A   Scattered Clouds
2:10 PM 91.4 °F 98.4 °F 71.6 °F 52% 29.62 in 5.0 mi West 13.8 mph - N/A   Scattered Clouds
2:30 PM 94 °F - 72 °F 40% 29.66 in 6 mi WNW 5.8 mph - -   Partly Cloudy
2:40 PM 93.2 °F 100.5 °F 71.6 °F 49% 29.62 in 5.0 mi West 13.8 mph - N/A   Scattered Clouds
3:10 PM 93.2 °F 100.5 °F 71.6 °F 49% 29.59 in 5.0 mi West 11.5 mph - N/A   Scattered Clouds
3:40 PM 93.2 °F 100.5 °F 71.6 °F 49% 29.59 in 5.0 mi SW 9.2 mph - N/A   Scattered Clouds
4:10 PM 91.4 °F 98.4 °F 71.6 °F 52% 29.59 in 4.3 mi SW 9.2 mph - N/A   Mostly Cloudy
4:40 PM 91.4 °F 98.4 °F 71.6 °F 52% 29.59 in 4.3 mi SW 6.9 mph - N/A   Mostly Cloudy
5:10 PM 91.4 °F 98.4 °F 71.6 °F 52% 29.59 in 4.3 mi SSW 6.9 mph - N/A   Mostly Cloudy
5:30 PM 91 °F - 76 °F 54% 29.63 in 6 mi SW 3.5 mph - -   Partly Cloudy
5:40 PM 91.4 °F 98.4 °F 71.6 °F 52% 29.59 in 3.7 mi SW 6.9 mph - N/A   Mostly Cloudy
6:10 PM 89.6 °F 96.2 °F 71.6 °F 55% 29.62 in 3.7 mi SW 5.8 mph - N/A   Mostly Cloudy
7:10 PM 78.8 °F - 75.2 °F 89% 29.65 in 1.9 mi Calm Calm - N/A Rain , Thunderstorm Light Thunderstorms and Rain
7:40 PM 78.8 °F - 75.2 °F 89% 29.68 in 1.9 mi Calm Calm - N/A Rain , Thunderstorm Light Thunderstorms and Rain
8:10 PM 80.6 °F 85.4 °F 73.4 °F 79% 29.68 in 1.9 mi ESE 4.6 mph - N/A Rain , Thunderstorm Light Thunderstorms and Rain
8:40 PM 80.6 °F 85.4 °F 73.4 °F 79% 29.68 in 1.9 mi South 6.9 mph - N/A Rain , Thunderstorm Light Thunderstorms and Rain
9:10 PM 78.8 °F - 73.4 °F 83% 29.68 in 2.5 mi South 5.8 mph - N/A   Haze
9:40 PM 80.6 °F 86.2 °F 75.2 °F 84% 29.71 in 2.5 mi South 6.9 mph - N/A   Haze
10:10 PM 80.6 °F 86.2 °F 75.2 °F 84% 29.71 in 2.5 mi South 8.1 mph - N/A   Haze
11:10 PM 80.6 °F 86.2 °F 75.2 °F 84% 29.71 in 3.1 mi South 2.3 mph - N/A   Haze
11:40 PM 80.6 °F 85.4 °F 73.4 °F 79% 29.68 in 3.1 mi SSW 4.6 mph - N/A   Haze